ワイズ彗星

412P/WISE (2009)

English version
Home page
Updated on February 17, 2021

---------------------------------------------------------------------

・ プロフィール

符号 412P/2010 B2
発見日 2010年1月22日
発見光度
発見者 Wide Field Infrared Survey Explorer (NASA)

・ 軌道要素

Epoch 2010 Jan. 4.0 TT = JDT 2455200.5                                          
T 2009 Dec. 21.91386 TT                                 Bell                    
q   1.6164776            (2000.0)            P               Q                  
n   0.17965763     Peri.  156.04799     -0.91989649     -0.39215409             
a   3.1105626      Node     0.87394     +0.33005173     -0.77745264             
e   0.4803263      Incl.    8.93161     +0.21179305     -0.49171391             
P   5.49                                                                        
From 58 observations 2010 Jan. 22-2020 Dec. 20, mean residual 0".6.             

・ 光度変化

        m1 = 17.0 + 5 logΔ + 10.0 log r

---------------------------------------------------------------------

軌道要素はM.P.E.C. 2021-A76に掲載されたものです。
光度グラフはComet for Windowsで作成したものです。

---------------------------------------------------------------------

Copyright(C) Seiichi Yoshida (comet@aerith.net). All rights reserved.